Regional Weather Roundup
Issued by NWS

Home | Current Version | Previous Version | Text Only | Print | Product List | Glossary On
Versions: 1 2 3 4 5 6 7 8 9 10 11 12 13 14 15 16 17 18 19 20 21 22 23 24 25 26 27 28 29 30 31 32 33 34 35 36 37 38 39 40 41 42 43 44 45 46 47 48 49 50
000
ASUS43 KBIS 210310
RWRND

NORTH DAKOTA REGIONAL WEATHER ROUNDUP
NATIONAL WEATHER SERVICE BISMARCK ND
900 PM CST THU NOV 20 2014

NOTE: "FAIR" INDICATES FEW OR NO CLOUDS BELOW 12,000 FEET WITH NO
SIGNIFICANT WEATHER AND/OR OBSTRUCTIONS TO VISIBILITY.


NDZ001>003-009>011-017-210400-
NORTHWEST NORTH DAKOTA

CITY           SKY/WX    TMP DP  RH WIND       PRES   REMARKS
WILLISTON      PTCLDY    19  14  81 CALM      29.79F
MINOT          MOCLDY    17  11  77 S9        29.84F WCI   6
MINOT AFB      CLOUDY    17  13  84 S12       29.83F WCI   4
$$

NDZ018>021-031>035-040>046-210400-
SOUTHWEST NORTH DAKOTA

CITY           SKY/WX    TMP DP  RH WIND       PRES   REMARKS
BISMARCK       CLEAR     12   6  77 SE9       29.97F WCI   0
DICKINSON      CLEAR     23  17  78 S16       29.80F WCI  10
GARRISON         N/A     20  17  88 S16       29.87F WCI   6
HETTINGER ARPT PTCLDY    20  16  84 S10       29.88F WCI   9
$$

NDZ004>008-012>016-024-026-027-054-210400-
NORTHEAST NORTH DAKOTA

CITY           SKY/WX    TMP DP  RH WIND       PRES   REMARKS
GRAND FORKS    PTCLDY    11   4  73 S7        30.07F WCI   0
GRND FRKS AFB  PTCLDY    13   4  68 S9        30.05F WCI   1
DEVILS LAKE    PTCLDY    16   3  57 S12       29.96S WCI   3
$$

NDZ022-023-025-028>030-036>039-047>053-210400-
SOUTHEAST NORTH DAKOTA

CITY           SKY/WX    TMP DP  RH WIND       PRES   REMARKS
FARGO          PTCLDY    13   5  70 S10       30.12F WCI   0
JAMESTOWN      PTCLDY    10   5  80 S9        30.02F WCI  -3
$$



USA.gov is the U.S. government's official web portal to all federal, state and local government web resources and services.